Weather History for Dundee, United Kingdom

Change the Weather History Date:

Friday, December 7, 2012

  Actual Average Record
Temperature  
Mean Temperature 37 °F -  
Max Temperature 42 °F 42 °F 50 °F (2001)
Min Temperature 32 °F 36 °F 19 °F (2010)
Degree Days  
Heating Degree Days 28    
Moisture  
Dew Point 32 °F    
Average Humidity 77    
Maximum Humidity 87    
Minimum Humidity 70    
Precipitation  
Precipitation 0.00 in - - ()
Sea Level Pressure  
Sea Level Pressure 29.79 in    
Wind  
Wind Speed 6 mph ()    
Max Wind Speed 13 mph    
Max Gust Speed 16 mph    
Visibility 6.2 miles    
Events      
Averages and records for this station are not official NWS values.
T = Trace of Precipitation, MM = Missing Value Source: Averaged Metar Reports

Daily Weather History Graph

Daily Weather History Graph

Search for Another Location

Airport:

Trip Planner

Search our weather history database for the weather conditions in past years. The results will help you decide how hot, cold, wet, or windy it might be!

Date:

Astronomy

Dec. 07, 2012 Rise Set
Actual Time 8:31 AM GMT 3:35 PM GMT
Civil Twilight 7:44 AM GMT 4:23 PM GMT
Nautical Twilight 6:54 AM GMT 5:12 PM GMT
Astronomical Twilight 6:09 AM GMT 5:58 PM GMT
Moon 12:25 AM GMT (12/7) 12:28 PM GMT (12/7)
Length of Visible Light 8h 38m
Length of Day
7h 04m
Last Quarter, 41% of the Moon is Illuminated
Dec 7
Last Quarter
Dec 13
New
Dec 20
First Quarter
Dec 28
Full
Jan 5
Last Quarter

Hourly Weather History & Observations

Time (GMT) Temp. Windchill Dew Point Humidity Pressure Visibility Wind Dir Wind Speed Gust Speed Precip Events Conditions
7:50 AM 32.0 °F 25.6 °F 28.4 °F 87% 29.50 in 6.2 mi WNW 6.9 mph - N/A   Scattered Clouds
8:20 AM 33.8 °F 28.6 °F 30.2 °F 87% 29.53 in 6.2 mi WNW 5.8 mph - N/A   Scattered Clouds
8:50 AM 33.8 °F 27.0 °F 30.2 °F 87% 29.56 in 6.2 mi NW 8.1 mph - N/A   Scattered Clouds
9:20 AM 35.6 °F 31.7 °F 32.0 °F 87% 29.56 in 6.2 mi WNW 4.6 mph - N/A   Scattered Clouds
9:50 AM 35.6 °F 32.8 °F 32.0 °F 87% 29.59 in 6.2 mi WNW 3.5 mph - N/A   Scattered Clouds
10:20 AM 35.6 °F 31.7 °F 32.0 °F 87% 29.62 in 6.2 mi West 4.6 mph - N/A   Scattered Clouds
10:50 AM 39.2 °F 33.0 °F 32.0 °F 75% 29.62 in 6.2 mi WNW 9.2 mph - N/A   Scattered Clouds
11:20 AM 39.2 °F 34.2 °F 33.8 °F 81% 29.65 in 6.2 mi NW 6.9 mph - N/A   Scattered Clouds
11:50 AM 41.0 °F 38.0 °F 33.8 °F 76% 29.68 in 6.2 mi NNW 4.6 mph - N/A   Scattered Clouds
12:20 PM 41.0 °F 36.4 °F 33.8 °F 76% 29.68 in 6.2 mi WNW 6.9 mph - N/A   Scattered Clouds
12:50 PM 42.8 °F 40.1 °F 35.6 °F 76% 29.71 in 6.2 mi NW 4.6 mph 16.1 mph N/A   Scattered Clouds
1:20 PM 42.8 °F 38.6 °F 33.8 °F 70% 29.74 in 6.2 mi NW 6.9 mph - N/A   Scattered Clouds
1:50 PM 41.0 °F 35.8 °F 33.8 °F 76% 29.74 in 6.2 mi NNW 8.1 mph - N/A   Scattered Clouds
2:20 PM 41.0 °F 35.8 °F 33.8 °F 76% 29.77 in 6.2 mi NNW 8.1 mph - N/A   Scattered Clouds
2:50 PM 41.0 °F 37.1 °F 33.8 °F 76% 29.80 in 6.2 mi NNW 5.8 mph - N/A   Scattered Clouds
3:20 PM 41.0 °F 35.2 °F 32.0 °F 70% 29.83 in 6.2 mi North 9.2 mph - N/A   Scattered Clouds
3:50 PM 42.8 °F 36.6 °F 33.8 °F 70% 29.83 in 6.2 mi Variable 11.5 mph - N/A   Scattered Clouds
4:20 PM 41.0 °F 34.7 °F 32.0 °F 70% 29.86 in 6.2 mi North 10.4 mph - N/A   Scattered Clouds
4:50 PM 41.0 °F 35.8 °F 32.0 °F 70% 29.89 in 6.2 mi NW 8.1 mph - N/A   Scattered Clouds
5:20 PM 41.0 °F 38.0 °F 32.0 °F 70% 29.92 in 6.2 mi North 4.6 mph - N/A   Scattered Clouds
5:50 PM 41.0 °F 34.7 °F 32.0 °F 70% 29.92 in 6.2 mi NNW 10.4 mph - N/A   Partly Cloudy
6:20 PM 41.0 °F 34.3 °F 32.0 °F 70% 29.95 in 6.2 mi NNW 11.5 mph - N/A   Partly Cloudy
6:50 PM 39.2 °F 33.6 °F 30.2 °F 70% 29.98 in 6.2 mi NNW 8.1 mph - N/A   Partly Cloudy
7:20 PM 39.2 °F 33.6 °F 30.2 °F 70% 29.98 in 6.2 mi NNW 8.1 mph - N/A   Partly Cloudy
7:50 PM 35.6 °F 31.7 °F 30.2 °F 81% 30.01 in 6.2 mi WNW 4.6 mph - N/A   Partly Cloudy
8:20 PM 37.4 °F 29.3 °F 32.0 °F 81% 30.01 in 6.2 mi SW 12.7 mph - N/A   Partly Cloudy
8:50 PM 37.4 °F 32.8 °F 30.2 °F 75% 30.04 in 6.2 mi West 5.8 mph - N/A   Partly Cloudy
9:20 PM 35.6 °F 30.7 °F 30.2 °F 81% 30.04 in 6.2 mi NW 5.8 mph - N/A   Partly Cloudy
9:50 PM 35.6 °F 32.8 °F 30.2 °F 81% 30.04 in 6.2 mi WNW 3.5 mph - N/A   Partly Cloudy